Simultaneous Nadir Overpasses (SNOs) Predictions

Prediction of SNOs between NOAA-19 and TERRA Satellite Orbit:

Table of predicted SNOs for the next 14.0 days since TLE Epoch: 3/22/2025
Index Date (NOAA-19) Time (NOAA-19) Lat,Lon (NOAA-19) SZA (NOAA-19 ) Date (TERRA) Time (TERRA) Lat,Lon (TERRA) SZA (TERRA ) Distance(km) Time Diff (sec)
1 03/22/2025 22:06:33 72.25, -35.65 96.29 03/22/2025 22:07:20 72.25, -35.63 96.35 0.63 47
2 03/22/2025 22:56:56 -70.64, 134.61 82.22 03/22/2025 22:56:08 -70.63, 134.63 82.27 1.00 48
3 03/25/2025 01:04:56 72.40, -80.49 95.40 03/25/2025 01:05:33 72.39, -80.47 95.45 0.96 37
4 03/25/2025 01:55:16 -70.66, 90.03 82.98 03/25/2025 01:54:19 -70.67, 89.99 83.07 2.26 57
5 03/27/2025 04:03:15 72.37,-124.96 94.69 03/27/2025 04:03:42 72.38,-125.02 94.70 2.48 27
6 03/27/2025 04:53:44 -71.11, 44.72 84.13 03/27/2025 04:52:36 -71.10, 44.77 84.19 2.56 68
7 03/29/2025 07:01:42 72.75,-170.31 93.58 03/29/2025 07:01:57 72.74,-170.25 93.62 2.30 15
8 03/29/2025 07:48:57 -61.09, 11.80 75.89 03/29/2025 07:47:44 -60.88, 10.52 76.41 73.15 73
9 03/31/2025 09:59:58 72.60, 145.47 92.98 03/31/2025 10:00:02 72.62, 145.40 92.97 2.66 4
10 04/02/2025 12:58:22 72.87, 100.35 91.99 04/02/2025 12:58:13 72.87, 100.37 91.98 0.64 9



Historial Predications of SNOs between NOAA-19 and TERRA
